[ hide orbit diagram ]
For accurate long-term ephemerides, please instead use our Horizons system.This orbit viewer was implemented using two-body methods, and hence should not be used for determining accurate long-term trajectories (over several years or decades) or planetary encounter circumstances.
Orbital Elements at Epoch 2459200.5 (2020-Dec-17.0) TDB
Reference: JPL 27 (heliocentric ecliptic J2000)
Element | Value | Uncertainty (1-sigma) | Units |
e | .1553189695923118 | 4.4746e-08 | |
a | 2.202886854129115 | 6.6361e-09 | au |
q | 1.860736737817332 | 1.0004e-07 | au |
i | 5.712667835524083 | 3.7893e-06 | deg |
node | 155.3376466995846 | 4.716e-05 | deg |
peri | 86.81137372085043 | 4.8851e-05 | deg |
M | 271.8050829255204 | 1.5427e-05 | deg |
tp | 2459493.068637509394 (2021-Oct-05.56863751) | 5.1931e-05 | TDB |
period | 1194.226526846626 3.27 | 5.3963e-06 1.477e-08 | d yr |
n | .3014503462342153 | 1.3622e-09 | deg/d |
Q | 2.545036970440899 | 7.6668e-09 | au |
|
| | Orbit Determination Parameters
Additional Information
|
[ show covariance matrix ]
Physical Parameter Table
Parameter |
Symbol |
Value |
Units |
Sigma |
Reference |
Notes |
absolute magnitude |
H |
15.3 |
|
n/a |
MPO449155 |
|
|
26386 Adelinacozma | Discovered 1999 Sept. 9 by the Lincoln Laboratory Near-Earth Asteroid Research Team at Socorro. |
Adelina Corina Cozma (b. 1995) was awarded second place in the 2010 Intel International Science and Engineering Fair for her behavioral- and social-sciences project. She attends the Bayview Secondary School, Richmond Hill, Ontario, Canada. |
NOTE: some special characters may not display properly (any characters within {} are an attempt to place the proper accent above a character) |
Reference: 20110319/MPCPages.arc | Last Updated: 2011-03-23 |
|
|